Regional Weather Roundup
Issued by NWS

Home | Current Version | Previous Version | Text Only | Print | Product List | Glossary On
Versions: 1 2 3 4 5 6 7 8 9 10 11 12 13 14 15 16 17 18 19 20 21 22 23 24 25 26 27 28
000
ASUS44 KLIX 040113
RWRLA
LOUISIANA WEATHER ROUNDUP
NATIONAL WEATHER SERVICE NEW ORLEANS LA
700 PM CST SAT DEC 03 2016

NOTE: "FAIR" INDICATES FEW OR NO CLOUDS BELOW 12,000 FEET WITH NO
      SIGNIFICANT WEATHER AND/OR OBSTRUCTIONS TO VISIBILITY.
      SKY/WX - SKY CONDITION AND SIGNIFICANT WEATHER.
      TMP - AIR TEMPERATURE.    DP   - DEWPOINT TEMPERATURE.
      RH  - RELATIVE HUMIDITY.  PRES - PRESSURE.
      HX  - HEAT INDEX.         WCI  - WIND CHILL INDEX.

*  THESE STATIONS ARE NOT NWS OR FAA STATIONS AND ARE NOT UNDER
   NWS QUALITY CONTROL.

LAZ040-048-061>063-065-066-069-040200-
SOUTHEAST LOUISIANA

CITY           SKY/WX    TMP DP  RH WIND       PRES   REMARKS
N.O. AUDUBON   NOT AVBL
N.O. INTL ARPT CLOUDY    61  52  72 E18G29    29.99S
N.O. LAKEFRONT CLOUDY    62  49  62 E22       30.00S
N.O. DOWNTOWN* LGT RAIN  61  52  72 E10G18    30.00F
RESERVE*       CLOUDY    62  51  67 E17G28    29.99R
SLIDELL        CLOUDY    60  39  45 E10G18    30.02S
BATON ROUGE    CLOUDY    60  50  69 E20G28    29.96S
BOOTHVILLE     CLOUDY    67  63  87 E10       30.00S
BELLE CHASSE   CLOUDY    60  55  83 E22       29.99F
BOGALUSA*      MOCLDY    58  39  50 E9G20     30.05F
GALLIANO*      CLOUDY    65  59  82 NE9       29.97S
NEW ROADS*     CLOUDY    55  51  86 E9        29.94F
GONZALES*      CLOUDY    60  53  76 E13       29.97F
HAMMOND*       CLOUDY    59  37  44 E10       30.01R
HOUMA*         CLOUDY    62  60  94 NE13G20   29.97S
PORT FOURCHON* CLOUDY    73  68  83 SE16G22   29.95S HAZE

$$

LAZ041-044-053-054-040200-
SOUTHWEST LOUISIANA

CITY           SKY/WX    TMP DP  RH WIND       PRES   REMARKS
LAKE CHARLES   RAIN      54  54 100 N13       29.86S FOG
LAFAYETTE      CLOUDY    63  59  87 SE10G17   29.90F
PATTERSON      CLOUDY   N/A N/A N/A E13       29.94S
SALT POINT     NOT AVBL
NEW IBERIA     LGT RAIN  61  56  83 E9        29.91F
CHENAULT AIRPK RAIN      54  54 100 NE12G18   29.87F FOG

$$

LAZ027-028-040200-
CENTRAL LOUISIANA

CITY           SKY/WX    TMP DP  RH WIND       PRES   REMARKS
FORT POLK      LGT RAIN  48  48 100 E10       29.90S FOG
ALEXANDRIA INT HVY RAIN  48  48 100 VRB5      29.94R FOG
ALEXANDRIA     HVY RAIN  48  48 100 NE7       29.91F FOG

$$

LAZ001-002-040200-
NORTHWEST LOUISIANA

CITY           SKY/WX    TMP DP  RH WIND       PRES   REMARKS
SHREVEPORT     LGT RAIN  48  47  96 E9        29.99S FOG
BARKSDALE AFB  CLOUDY    47  47 100 NE5       30.01S
DTN SHREVEPORT LGT RAIN  48  45  89 NE6       30.02R FOG

$$

LAZ014-016-040200-
NORTHEAST LOUISIANA

CITY           SKY/WX    TMP DP  RH WIND       PRES   REMARKS
MONROE         LGT RAIN  48  45  89 E9        30.03F
TALLULAH       LGT RAIN  48  45  89 E10       30.02R

$$





USA.gov is the U.S. government's official web portal to all federal, state and local government web resources and services.